This is the latest recevied weather packets stored in our database for station/object N6RDS-8. If no packets are shown the sender has not sent any weather packets the latest 10 day(s).
| Time | Temp. | Humidity | Pressure | Rain* | Wind** | Luminosity | Snow |
|---|---|---|---|---|---|---|---|
| 1778114940 | 24.44° C | 23% | 1017.7 hPa | 0 mm | - | 105 W/m² | - |
| 1778114637 | 23.89° C | 22% | 1017.7 hPa | 0 mm | - | 132 W/m² | - |
| 1778114334 | 23.89° C | 22% | 1017.5 hPa | 0 mm | - | 146 W/m² | - |
| 1778114029 | 24.44° C | 22% | 1017.4 hPa | 0 mm | - | 159 W/m² | - |
| 1778113725 | 25° C | 21% | 1017.6 hPa | 0 mm | - | 173 W/m² | - |
| 1778113421 | 25° C | 21% | 1017.6 hPa | 0 mm | - | 188 W/m² | - |
| 1778113118 | 25.56° C | 21% | 1017.4 hPa | 0 mm | - | 203 W/m² | - |
| 1778112815 | 25° C | 22% | 1017.6 hPa | 0 mm | - | 217 W/m² | - |
| 1778112511 | 25° C | 21% | 1017.5 hPa | 0 mm | - | 233 W/m² | - |
| 1778112207 | 25.56° C | 21% | 1017.6 hPa | 0 mm | - | 249 W/m² | - |
| 1778111904 | 24.44° C | 21% | 1017.6 hPa | 0 mm | - | 265 W/m² | - |
| 1778111600 | 25° C | 21% | 1017.5 hPa | 0 mm | - | 281 W/m² | - |
| 1778111296 | 25° C | 21% | 1017.5 hPa | 0 mm | - | 293 W/m² | - |
| 1778110994 | 25° C | 21% | 1017.5 hPa | 0 mm | - | 309 W/m² | - |
| 1778110692 | 25.56° C | 21% | 1017.6 hPa | 0 mm | - | 325 W/m² | - |
| 1778110388 | 25.56° C | 21% | 1017.5 hPa | 0 mm | - | 341 W/m² | - |
| 1778110085 | 25° C | 21% | 1017.6 hPa | 0 mm | - | 357 W/m² | - |
| 1778109780 | 25.56° C | 20% | 1017.4 hPa | 0 mm | - | 372 W/m² | - |
| 1778109471 | 26.11° C | 20% | 1017.6 hPa | 0 mm | - | 389 W/m² | - |
| 1778109169 | 25.56° C | 20% | 1017.7 hPa | 0 mm | - | 404 W/m² | - |
| 1778108866 | 25.56° C | 21% | 1017.6 hPa | 0 mm | - | 419 W/m² | - |
| 1778108563 | 24.44° C | 21% | 1017.7 hPa | 0 mm | - | 435 W/m² | - |
| 1778108254 | 24.44° C | 21% | 1017.8 hPa | 0 mm | - | 450 W/m² | - |
| 1778107951 | 25° C | 21% | 1017.9 hPa | 0 mm | - | 465 W/m² | - |
| 1778107647 | 25° C | 21% | 1017.7 hPa | 0 mm | - | 480 W/m² | - |
* Rain latest hour (hover to see other rain measurements)
** Current wind speed in m/s (hover to see current wind gust speed)